STARLINK-1319, 45379

Orbit data source: Space-Track

STARLINK-1319, 45379 is a payload satellite owned by SpaceX/Seattle (US) in LEO that was launched on Wed, 18 Mar 2020 UTC via an FALCON 9 launch vehicle from the Air Force Eastern Test Range (AFETR). Payload-class satellites include a variety of spacecraft equipped with specific instruments for various scientific and technological missions. These include communications satellites like Starlink; space stations such as the ISS; scientific satellites like the Hubble; Earth observation satellites from companies like Planet Labs, Umbra, and HawkEye 360; GPS; miniature CubeSats for education and research; and military/defense satellites.

Loading next visibility...
Identifier
45379, 2020-019V
Orbit
LEO
Country
Flag of USUS
Related business
Manufacturer
SpaceX/Seattle
Mission
Partially operational Commercial Communications
Bus & Motor
STARLINK, Unknown motor
Mass
260 kg wet, ~248 kg dry
Launch date (UTC)
2020-03-18 (6 years ago)
Launch vehicle
FALCON 9
Launch site
Air Force Eastern Test Range (AFETR)
Object type
Payload
Rocket body
Debris
Shape & HBR
Box + 1 Pan, 10.1 m
Radar Cross Section
13.562 m², Large (>1 m²)

Expand to show TLE details & history
Last TLE update: 11 hours ago

TLE from 11 hours ago
0 STARLINK-1319
1 45379U 20019V   26119.83926974  .00072634  00000-0  55358-3 0  9998
2 45379  53.0422 237.3810 0002596 315.9124  44.1686 15.71601561338283
Epoch: 2026-04-29T20:08Z
TLE epoch observation values (Epoch: 2026-04-29T20:08:32.905Z)
Latitude
-0.00002°
Longitude
77.44941°
Altitude
353.969 km
Speed
7.699 km/s
True Right ascension
15h 49m 31s
True Declination
0° 00' 00"
Sunlit
Object was in full shadow at epoch
Visualization orbit readout
Latitude
Unknown
Longitude
Unknown
Altitude
Unknown
Speed
Unknown
Apparent Right ascension
Unknown
Apparent Declination
Unknown
Sunlit
N/A
Visualization observer readout
Local Sidereal Time
14:31:06
Azimuth
Unknown
Elevation
Unknown
Doppler factor
Unknown
Orbital elements
Apogee altitude
356.347 km
Perigee altitude
352.852 km
Semi-major axis
6,732.737 km
Eccentricity
0.00026
Inclination
53.0422°
RAAN
237.381°
Arg. of periapsis
315.9124°
True anomaly
44.18933°
Mean anomaly
44.1686°
Eccentric anomaly
44.17897°
Mean motion
3.92876 °/min
Orbital period
91.63 mins
BSTAR
0.00055358
Loading maneuver chart data...
Computing Atmospheric mass density...
Loading historical data...
Loading historical data...
Loading historical data...
Loading historical data...
Loading historical data...
Loading historical data...
Loading historical data...

Documentation

Showing up to 5 results
|